#Datum;Uhrzeit;WR;Pac;DaySum;Status;WR;Pac;DaySum;Status;Pdc1;Udc;Temp;WR;Pac;DaySum;Status;Pdc1;Udc;Temp;WR;Pac;DaySum;Status;Pdc1;Udc;Temp;WR;Pac;DaySum;Status;Pdc1;Pdc2;Udc1;Udc2;Temp;WR;Pac;DaySum;Status;Pdc1;Pdc2;Udc1;Udc2;Temp;WR;Pac;DaySum;Status;Pdc1;Udc;Temp;WR;Pac;DaySum;Status;Pdc1;Udc;Temp;WR;Pac;DaySum;Status;Pdc1;Udc;Temp
19.02.21;23:55:00;1;618;17157;0;2;0;7961;0;0;0;0;3;0;4774;0;0;0;0;4;0;6393;0;0;0;0;5;0;0;0;0;0;0;0;0;6;0;10807;0;0;0;0;0;0;7;0;9392;0;0;0;0;8;0;9426;0;0;0;0;9;0;5051;0;0;0;0
19.02.21;23:50:00;1;970;17113;0;2;0;7961;0;0;0;0;3;0;4774;0;0;0;0;4;0;6393;0;0;0;0;5;0;0;0;0;0;0;0;0;6;0;10807;0;0;0;0;0;0;7;0;9392;0;0;0;0;8;0;9426;0;0;0;0;9;0;5051;0;0;0;0
19.02.21;23:45:00;1;648;17045;0;2;0;7961;0;0;0;0;3;0;4774;0;0;0;0;4;0;6393;0;0;0;0;5;0;0;0;0;0;0;0;0;6;0;10807;0;0;0;0;0;0;7;0;9392;0;0;0;0;8;0;9426;0;0;0;0;9;0;5051;0;0;0;0
19.02.21;23:40:00;1;429;16999;0;2;0;7961;0;0;0;0;3;0;4774;0;0;0;0;4;0;6393;0;0;0;0;5;0;0;0;0;0;0;0;0;6;0;10807;0;0;0;0;0;0;7;0;9392;0;0;0;0;8;0;9426;0;0;0;0;9;0;5051;0;0;0;0
19.02.21;23:35:00;1;459;16963;0;2;0;7961;0;0;0;0;3;0;4774;0;0;0;0;4;0;6393;0;0;0;0;5;0;0;0;0;0;0;0;0;6;0;10807;0;0;0;0;0;0;7;0;9392;0;0;0;0;8;0;9426;0;0;0;0;9;0;5051;0;0;0;0
19.02.21;23:30:00;1;453;16925;0;2;0;7961;0;0;0;0;3;0;4774;0;0;0;0;4;0;6393;0;0;0;0;5;0;0;0;0;0;0;0;0;6;0;10807;0;0;0;0;0;0;7;0;9392;0;0;0;0;8;0;9426;0;0;0;0;9;0;5051;0;0;0;0
19.02.21;23:25:00;1;465;16887;0;2;0;7961;0;0;0;0;3;0;4774;0;0;0;0;4;0;6393;0;0;0;0;5;0;0;0;0;0;0;0;0;6;0;10807;0;0;0;0;0;0;7;0;9392;0;0;0;0;8;0;9426;0;0;0;0;9;0;5051;0;0;0;0
19.02.21;23:20:00;1;393;16848;0;2;0;7961;0;0;0;0;3;0;4774;0;0;0;0;4;0;6393;0;0;0;0;5;0;0;0;0;0;0;0;0;6;0;10807;0;0;0;0;0;0;7;0;9392;0;0;0;0;8;0;9426;0;0;0;0;9;0;5051;0;0;0;0
19.02.21;23:15:00;1;387;16815;0;2;0;7961;0;0;0;0;3;0;4774;0;0;0;0;4;0;6393;0;0;0;0;5;0;0;0;0;0;0;0;0;6;0;10807;0;0;0;0;0;0;7;0;9392;0;0;0;0;8;0;9426;0;0;0;0;9;0;5051;0;0;0;0
19.02.21;23:10:00;1;707;16783;0;2;0;7961;0;0;0;0;3;0;4774;0;0;0;0;4;0;6393;0;0;0;0;5;0;0;0;0;0;0;0;0;6;0;10807;0;0;0;0;0;0;7;0;9392;0;0;0;0;8;0;9426;0;0;0;0;9;0;5051;0;0;0;0
19.02.21;23:05:00;1;417;16715;0;2;0;7961;0;0;0;0;3;0;4774;0;0;0;0;4;0;6393;0;0;0;0;5;0;0;0;0;0;0;0;0;6;0;10807;0;0;0;0;0;0;7;0;9392;0;0;0;0;8;0;9426;0;0;0;0;9;0;5051;0;0;0;0
19.02.21;23:00:00;1;445;16681;0;2;0;7961;0;0;0;0;3;0;4774;0;0;0;0;4;0;6393;0;0;0;0;5;0;0;0;0;0;0;0;0;6;0;10807;0;0;0;0;0;0;7;0;9392;0;0;0;0;8;0;9426;0;0;0;0;9;0;5051;0;0;0;0
19.02.21;22:55:00;1;491;16643;0;2;0;7961;0;0;0;0;3;0;4774;0;0;0;0;4;0;6393;0;0;0;0;5;0;0;0;0;0;0;0;0;6;0;10807;2;0;0;0;0;0;7;0;9392;0;0;0;0;8;0;9426;0;0;0;0;9;0;5051;0;0;0;0
19.02.21;22:50:00;1;434;16602;0;2;0;7961;0;0;0;0;3;0;4774;0;0;0;0;4;0;6393;0;0;0;0;5;0;0;0;0;0;0;0;0;6;0;10807;2;0;0;0;0;0;7;0;9392;0;0;0;0;8;0;9426;0;0;0;0;9;0;5051;0;0;0;0
19.02.21;22:45:00;1;426;16565;0;2;0;7961;0;0;0;0;3;0;4774;0;0;0;0;4;0;6393;0;0;0;0;5;0;0;0;0;0;0;0;0;6;0;10807;2;0;0;0;0;0;7;0;9392;0;0;0;0;8;0;9426;0;0;0;0;9;0;5051;0;0;0;0
19.02.21;22:40:00;1;457;16530;0;2;0;7961;0;0;0;0;3;0;4774;0;0;0;0;4;0;6393;0;0;0;0;5;0;0;0;0;0;0;0;0;6;0;10807;2;0;0;0;0;0;7;0;9392;0;0;0;0;8;0;9426;0;0;0;0;9;0;5051;0;0;0;0
19.02.21;22:35:00;1;408;16492;0;2;0;7961;0;0;0;0;3;0;4774;0;0;0;0;4;0;6393;0;0;0;0;5;0;0;0;0;0;0;0;0;6;0;10807;2;0;0;0;0;0;7;0;9392;0;0;0;0;8;0;9426;0;0;0;0;9;0;5051;0;0;0;0
19.02.21;22:30:00;1;612;16449;0;2;0;7961;0;0;0;0;3;0;4774;0;0;0;0;4;0;6393;0;0;0;0;5;0;0;0;0;0;0;0;0;6;0;10807;2;0;0;0;0;0;7;0;9392;0;0;0;0;8;0;9426;0;0;0;0;9;0;5051;0;0;0;0
19.02.21;22:25:00;1;525;16388;0;2;0;7961;0;0;0;0;3;0;4774;0;0;0;0;4;0;6393;0;0;0;0;5;0;0;0;0;0;0;0;0;6;0;10807;2;0;0;0;0;0;7;0;9392;0;0;0;0;8;0;9426;0;0;0;0;9;0;5051;0;0;0;0
19.02.21;22:20:00;1;495;16345;0;2;0;7961;0;0;0;0;3;0;4774;0;0;0;0;4;0;6393;0;0;0;0;5;0;0;0;0;0;0;0;0;6;0;10807;2;0;0;0;0;0;7;0;9392;0;0;0;0;8;0;9426;0;0;0;0;9;0;5051;0;0;0;0
19.02.21;22:15:00;1;444;16303;0;2;0;7961;0;0;0;0;3;0;4774;0;0;0;0;4;0;6393;0;0;0;0;5;0;0;0;0;0;0;0;0;6;0;10807;2;0;0;0;0;0;7;0;9392;0;0;0;0;8;0;9426;0;0;0;0;9;0;5051;0;0;0;0
19.02.21;22:10:00;1;528;16266;0;2;0;7961;0;0;0;0;3;0;4774;0;0;0;0;4;0;6393;0;0;0;0;5;0;0;0;0;0;0;0;0;6;0;10807;2;0;0;0;0;0;7;0;9392;0;0;0;0;8;0;9426;0;0;0;0;9;0;5051;0;0;0;0
19.02.21;22:05:00;1;545;16222;0;2;0;7961;0;0;0;0;3;0;4774;0;0;0;0;4;0;6393;0;0;0;0;5;0;0;0;0;0;0;0;0;6;0;10807;2;0;0;0;0;0;7;0;9392;0;0;0;0;8;0;9426;0;0;0;0;9;0;5051;0;0;0;0
19.02.21;22:00:00;1;882;16176;0;2;0;7961;0;0;0;0;3;0;4774;0;0;0;0;4;0;6393;0;0;0;0;5;0;0;0;0;0;0;0;0;6;0;10807;2;0;0;0;0;0;7;0;9392;0;0;0;0;8;0;9426;0;0;0;0;9;0;5051;0;0;0;0
19.02.21;21:55:00;1;574;16096;0;2;0;7961;0;0;0;0;3;0;4774;0;0;0;0;4;0;6393;0;0;0;0;5;0;0;0;0;0;0;0;0;6;0;10807;2;0;0;0;0;0;7;0;9392;0;0;0;0;8;0;9426;0;0;0;0;9;0;5051;0;0;0;0
19.02.21;21:50:00;1;475;16047;0;2;0;7961;0;0;0;0;3;0;4774;0;0;0;0;4;0;6393;0;0;0;0;5;0;0;0;0;0;0;0;0;6;0;10807;2;0;0;0;0;0;7;0;9392;0;0;0;0;8;0;9426;0;0;0;0;9;0;5051;0;0;0;0
19.02.21;21:45:00;1;701;16009;0;2;0;7961;0;0;0;0;3;0;4774;0;0;0;0;4;0;6393;0;0;0;0;5;0;0;0;0;0;0;0;0;6;0;10807;2;0;0;0;0;0;7;0;9392;0;0;0;0;8;0;9426;0;0;0;0;9;0;5051;0;0;0;0
19.02.21;21:40:00;1;491;15955;0;2;0;7961;0;0;0;0;3;0;4774;0;0;0;0;4;0;6393;0;0;0;0;5;0;0;0;0;0;0;0;0;6;0;10807;2;0;0;0;0;0;7;0;9392;0;0;0;0;8;0;9426;0;0;0;0;9;0;5051;0;0;0;0
19.02.21;21:35:00;1;735;15914;0;2;0;7961;0;0;0;0;3;0;4774;0;0;0;0;4;0;6393;0;0;0;0;5;0;0;0;0;0;0;0;0;6;0;10807;2;0;0;0;0;0;7;0;9392;0;0;0;0;8;0;9426;0;0;0;0;9;0;5051;0;0;0;0
19.02.21;21:30:00;1;719;15861;0;2;0;7961;0;0;0;0;3;0;4774;0;0;0;0;4;0;6393;0;0;0;0;5;0;0;0;0;0;0;0;0;6;0;10807;2;0;0;0;0;0;7;0;9392;0;0;0;0;8;0;9426;0;0;0;0;9;0;5051;0;0;0;0
19.02.21;21:25:00;1;1002;15809;0;2;0;7961;0;0;0;0;3;0;4774;0;0;0;0;4;0;6393;0;0;0;0;5;0;0;0;0;0;0;0;0;6;0;10807;2;0;0;0;0;0;7;0;9392;0;0;0;0;8;0;9426;0;0;0;0;9;0;5051;0;0;0;0
19.02.21;21:20:00;1;612;15728;0;2;0;7961;0;0;0;0;3;0;4774;0;0;0;0;4;0;6393;0;0;0;0;5;0;0;0;0;0;0;0;0;6;0;10807;2;0;0;0;0;0;7;0;9392;0;0;0;0;8;0;9426;0;0;0;0;9;0;5051;0;0;0;0
19.02.21;21:15:00;1;591;15677;0;2;0;7961;0;0;0;0;3;0;4774;0;0;0;0;4;0;6393;0;0;0;0;5;0;0;0;0;0;0;0;0;6;0;10807;2;0;0;0;0;0;7;0;9392;0;0;0;0;8;0;9426;0;0;0;0;9;0;5051;0;0;0;0
19.02.21;21:10:00;1;1238;15628;0;2;0;7961;0;0;0;0;3;0;4774;0;0;0;0;4;0;6393;0;0;0;0;5;0;0;0;0;0;0;0;0;6;0;10807;2;0;0;0;0;0;7;0;9392;0;0;0;0;8;0;9426;0;0;0;0;9;0;5051;0;0;0;0
19.02.21;21:05:00;1;538;15514;0;2;0;7961;0;0;0;0;3;0;4774;0;0;0;0;4;0;6393;0;0;0;0;5;0;0;0;0;0;0;0;0;6;0;10807;2;0;0;0;0;0;7;0;9392;0;0;0;0;8;0;9426;0;0;0;0;9;0;5051;0;0;0;0
19.02.21;21:00:00;1;532;15468;0;2;0;7961;0;0;0;0;3;0;4774;0;0;0;0;4;0;6393;0;0;0;0;5;0;0;0;0;0;0;0;0;6;0;10807;2;0;0;0;0;0;7;0;9392;0;0;0;0;8;0;9426;0;0;0;0;9;0;5051;0;0;0;0
19.02.21;20:55:00;1;590;15424;0;2;0;7961;0;0;0;0;3;0;4774;0;0;0;0;4;0;6393;0;0;0;0;5;0;0;0;0;0;0;0;0;6;0;10807;2;0;0;0;0;0;7;0;9392;0;0;0;0;8;0;9426;0;0;0;0;9;0;5051;0;0;0;0
19.02.21;20:50:00;1;560;15376;0;2;0;7961;0;0;0;0;3;0;4774;0;0;0;0;4;0;6393;0;0;0;0;5;0;0;0;0;0;0;0;0;6;0;10807;2;0;0;0;0;0;7;0;9392;0;0;0;0;8;0;9426;0;0;0;0;9;0;5051;0;0;0;0
19.02.21;20:45:00;1;515;15328;0;2;0;7961;0;0;0;0;3;0;4774;0;0;0;0;4;0;6393;0;0;0;0;5;0;0;0;0;0;0;0;0;6;0;10807;2;0;0;0;0;0;7;0;9392;0;0;0;0;8;0;9426;0;0;0;0;9;0;5051;0;0;0;0
19.02.21;20:40:00;1;992;15276;0;2;0;7961;0;0;0;0;3;0;4774;0;0;0;0;4;0;6393;0;0;0;0;5;0;0;0;0;0;0;0;0;6;0;10807;2;0;0;0;0;0;7;0;9392;0;0;0;0;8;0;9426;0;0;0;0;9;0;5051;0;0;0;0
19.02.21;20:35:00;1;516;15189;0;2;0;7961;0;0;0;0;3;0;4774;0;0;0;0;4;0;6393;0;0;0;0;5;0;0;0;0;0;0;0;0;6;0;10807;2;0;0;0;0;0;7;0;9392;0;0;0;0;8;0;9426;0;0;0;0;9;0;5051;0;0;0;0
19.02.21;20:30:00;1;1203;15142;0;2;0;7961;0;0;0;0;3;0;4774;0;0;0;0;4;0;6393;0;0;0;0;5;0;0;0;0;0;0;0;0;6;0;10807;2;0;0;0;0;0;7;0;9392;0;0;0;0;8;0;9426;0;0;0;0;9;0;5051;0;0;0;0
19.02.21;20:25:00;1;918;15033;0;2;0;7961;0;0;0;0;3;0;4774;0;0;0;0;4;0;6393;0;0;0;0;5;0;0;0;0;0;0;0;0;6;0;10807;2;0;0;0;0;0;7;0;9392;0;0;0;0;8;0;9426;0;0;0;0;9;0;5051;0;0;0;0
19.02.21;20:20:00;1;937;14957;0;2;0;7961;0;0;0;0;3;0;4774;0;0;0;0;4;0;6393;0;0;0;0;5;0;0;0;0;0;0;0;0;6;0;10807;2;0;0;0;0;0;7;0;9392;0;0;0;0;8;0;9426;0;0;0;0;9;0;5051;0;0;0;0
19.02.21;20:15:00;1;1081;14878;0;2;0;7961;0;0;0;0;3;0;4774;0;0;0;0;4;0;6393;0;0;0;0;5;0;0;0;0;0;0;0;0;6;0;10807;2;0;0;0;0;0;7;0;9392;0;0;0;0;8;0;9426;0;0;0;0;9;0;5051;0;0;0;0
19.02.21;20:10:00;1;946;14790;0;2;0;7961;0;0;0;0;3;0;4774;0;0;0;0;4;0;6393;0;0;0;0;5;0;0;0;0;0;0;0;0;6;0;10807;2;0;0;0;0;0;7;0;9392;0;0;0;0;8;0;9426;0;0;0;0;9;0;5051;0;0;0;0
19.02.21;20:05:00;1;653;14709;0;2;0;7961;0;0;0;0;3;0;4774;0;0;0;0;4;0;6393;0;0;0;0;5;0;0;0;0;0;0;0;0;6;0;10807;2;0;0;0;0;0;7;0;9392;0;0;0;0;8;0;9426;0;0;0;0;9;0;5051;0;0;0;0
19.02.21;20:00:00;1;811;14663;0;2;0;7961;0;0;0;0;3;0;4774;0;0;0;0;4;0;6393;0;0;0;0;5;0;0;0;0;0;0;0;0;6;0;10807;2;0;0;0;0;0;7;0;9392;0;0;0;0;8;0;9426;0;0;0;0;9;0;5051;0;0;0;0
19.02.21;19:55:00;1;1654;14602;0;2;0;7961;0;0;0;0;3;0;4774;0;0;0;0;4;0;6393;0;0;0;0;5;0;0;0;0;0;0;0;0;6;0;10807;2;0;0;0;0;0;7;0;9392;0;0;0;0;8;0;9426;0;0;0;0;9;0;5051;0;0;0;0
19.02.21;19:50:00;1;1238;14476;0;2;0;7961;0;0;0;0;3;0;4774;0;0;0;0;4;0;6393;0;0;0;0;5;0;0;0;0;0;0;0;0;6;0;10807;2;0;0;0;0;0;7;0;9392;0;0;0;0;8;0;9426;0;0;0;0;9;0;5051;0;0;0;0
19.02.21;19:45:00;1;1887;14370;0;2;0;7961;0;0;0;0;3;0;4774;0;0;0;0;4;0;6393;0;0;0;0;5;0;0;0;0;0;0;0;0;6;0;10807;2;0;0;0;0;0;7;0;9392;0;0;0;0;8;0;9426;0;0;0;0;9;0;5051;0;0;0;0
19.02.21;19:40:00;1;1211;14214;0;2;0;7961;0;0;0;0;3;0;4774;0;0;0;0;4;0;6393;0;0;0;0;5;0;0;0;0;0;0;0;0;6;0;10807;2;0;0;0;0;0;7;0;9392;0;0;0;0;8;0;9426;0;0;0;0;9;0;5051;0;0;0;0
19.02.21;19:35:00;1;961;14120;0;2;0;7961;0;0;0;0;3;0;4774;0;0;0;0;4;0;6393;0;0;0;0;5;0;0;0;0;0;0;0;0;6;0;10807;0;0;0;0;0;0;7;0;9392;0;0;0;0;8;0;9426;0;0;0;0;9;0;5051;0;0;0;0
19.02.21;19:30:00;1;957;14039;0;2;0;7961;0;0;0;0;3;0;4774;0;0;0;0;4;0;6393;0;0;0;0;5;0;0;0;0;0;0;0;0;6;0;10807;2;0;0;0;0;0;7;0;9392;0;0;0;0;8;0;9426;0;0;0;0;9;0;5051;0;0;0;0
19.02.21;19:25:00;1;955;13959;0;2;0;7961;0;0;0;0;3;0;4774;0;0;0;0;4;0;6393;0;0;0;0;5;0;0;0;0;0;0;0;0;6;0;10807;2;0;0;0;0;0;7;0;9392;0;0;0;0;8;0;9426;0;0;0;0;9;0;5051;0;0;0;0
19.02.21;19:20:00;1;1044;13879;0;2;0;7961;0;0;0;0;3;0;4774;0;0;0;0;4;0;6393;0;0;0;0;5;0;0;0;0;0;0;0;0;6;0;10807;2;0;0;0;0;0;7;0;9392;0;0;0;0;8;0;9426;0;0;0;0;9;0;5051;0;0;0;0
19.02.21;19:15:00;1;1006;13792;0;2;0;7961;0;0;0;0;3;0;4774;0;0;0;0;4;0;6393;0;0;0;0;5;0;0;0;0;0;0;0;0;6;0;10807;2;0;0;0;0;0;7;0;9392;0;0;0;0;8;0;9426;0;0;0;0;9;0;5051;0;0;0;0
19.02.21;19:10:00;1;1000;13708;0;2;0;7961;0;0;0;0;3;0;4774;0;0;0;0;4;0;6393;0;0;0;0;5;0;0;0;0;0;0;0;0;6;0;10807;2;0;0;0;0;0;7;0;9392;0;0;0;0;8;0;9426;0;0;0;0;9;0;5051;0;0;0;0
19.02.21;19:05:00;1;989;13626;0;2;0;7961;0;0;0;0;3;0;4774;0;0;0;0;4;0;6393;0;0;0;0;5;0;0;0;0;0;0;0;0;6;0;10807;2;0;0;0;0;0;7;0;9392;0;0;0;0;8;0;9426;0;0;0;0;9;0;5051;0;0;0;0
19.02.21;19:00:00;1;1245;13534;0;2;0;7961;0;0;0;0;3;0;4774;0;0;0;0;4;0;6393;0;0;0;0;5;0;0;0;0;0;0;0;0;6;0;10807;2;0;0;0;0;0;7;0;9392;0;0;0;0;8;0;9426;0;0;0;0;9;0;5051;0;0;0;0
19.02.21;18:55:00;1;922;13431;0;2;0;7961;0;0;0;0;3;0;4774;0;0;0;0;4;0;6393;0;0;0;0;5;0;0;0;0;0;0;0;0;6;0;10807;2;0;0;0;0;0;7;0;9392;0;0;0;0;8;0;9426;0;0;0;0;9;0;5051;0;0;0;0
19.02.21;18:50:00;1;971;13354;0;2;0;7961;0;0;0;0;3;0;4774;0;0;0;0;4;0;6393;0;0;0;0;5;0;0;0;0;0;0;0;0;6;0;10807;2;0;0;0;0;0;7;0;9392;0;0;0;0;8;0;9426;0;0;0;0;9;0;5051;0;0;0;0
19.02.21;18:45:00;1;923;13273;0;2;0;7961;0;0;0;0;3;0;4774;0;0;0;0;4;0;6393;0;0;0;0;5;0;0;0;0;0;0;0;0;6;0;10807;2;0;0;0;0;0;7;0;9392;0;0;0;0;8;0;9426;0;0;0;0;9;0;5051;0;0;0;0
19.02.21;18:40:00;1;950;13195;0;2;0;7961;0;0;0;0;3;0;4774;0;0;0;0;4;0;6393;0;0;0;0;5;0;0;0;0;0;0;0;0;6;0;10807;2;0;0;0;0;0;7;0;9392;0;0;0;0;8;0;9426;0;0;0;0;9;0;5051;0;0;0;0
19.02.21;18:35:00;1;1259;13116;0;2;0;7961;0;0;0;0;3;0;4774;0;0;0;0;4;0;6393;0;0;0;0;5;0;0;0;0;0;0;0;0;6;0;10807;2;0;0;0;0;0;7;0;9392;0;0;0;0;8;0;9426;0;0;0;0;9;0;5051;0;0;0;0
19.02.21;18:30:00;1;999;13014;0;2;0;7961;0;0;0;0;3;0;4774;0;0;0;0;4;0;6393;0;0;0;0;5;0;0;0;0;0;0;0;0;6;0;10807;2;0;0;0;0;0;7;0;9392;0;0;0;0;8;0;9426;0;0;0;0;9;0;5051;0;0;0;0
19.02.21;18:25:00;1;946;12934;0;2;0;7961;0;0;0;0;3;0;4774;0;0;0;0;4;0;6393;0;0;0;0;5;0;0;0;0;0;0;0;0;6;0;10807;2;0;0;0;0;0;7;0;9392;0;0;0;0;8;0;9426;0;0;0;0;9;0;5051;0;0;0;0
19.02.21;18:20:00;1;1176;12855;0;2;0;7961;0;0;0;0;3;0;4774;0;0;0;0;4;0;6393;0;0;0;0;5;0;0;0;0;0;0;0;0;6;0;10807;2;0;0;0;0;0;7;0;9392;0;0;0;0;8;0;9426;0;0;0;0;9;0;5051;0;0;0;0
19.02.21;18:15:00;1;968;12739;0;2;0;7961;0;0;0;0;3;0;4774;0;0;0;0;4;0;6393;0;0;0;0;5;0;0;0;0;0;0;0;0;6;0;10807;2;0;0;0;0;0;7;0;9392;0;0;0;0;8;0;9426;0;0;0;0;9;0;5051;0;0;0;0
19.02.21;18:10:00;1;699;12659;0;2;0;7961;0;0;0;0;3;0;4774;0;0;0;0;4;0;6393;0;0;0;0;5;0;0;0;0;0;0;0;0;6;0;10807;2;0;0;0;0;0;7;0;9392;0;0;0;0;8;0;9426;0;0;0;0;9;0;5051;0;0;0;0
19.02.21;18:05:00;1;601;12600;0;2;0;7961;0;0;0;0;3;0;4774;0;0;0;0;4;0;6393;0;0;0;0;5;0;0;0;0;0;0;0;0;6;0;10807;2;0;0;0;0;0;7;0;9392;0;0;0;0;8;0;9426;0;0;0;0;9;0;5051;0;0;0;0
19.02.21;18:00:00;1;600;12556;0;2;0;7961;0;0;0;0;3;0;4774;0;0;0;0;4;0;6393;0;0;0;0;5;0;0;0;0;0;0;0;0;6;0;10807;2;0;0;0;0;0;7;0;9392;0;0;0;0;8;0;9426;0;0;0;0;9;0;5051;0;0;0;0
19.02.21;17:55:00;1;856;12507;0;2;0;7961;0;0;0;0;3;0;4774;0;0;0;0;4;0;6393;0;0;0;0;5;0;0;0;0;0;0;0;0;6;0;10807;2;0;0;0;0;0;7;0;9392;0;0;0;0;8;0;9426;0;0;0;0;9;0;5051;0;0;0;0
19.02.21;17:50:00;1;1179;12425;0;2;0;7961;0;0;0;0;3;0;4774;6;0;260;16;4;0;6393;0;0;0;0;5;0;0;0;0;0;0;0;0;6;0;10807;2;0;0;0;0;0;7;0;9392;0;0;0;0;8;0;9426;0;0;0;0;9;0;5051;0;0;0;0
19.02.21;17:45:00;1;1015;12326;0;2;0;7961;2;0;273;14;3;0;4774;6;0;306;16;4;0;6393;0;0;41;10;5;0;0;0;0;0;0;0;0;6;0;10807;2;0;0;0;0;0;7;0;9392;0;0;0;0;8;0;9426;0;0;0;0;9;0;5051;0;0;0;0
19.02.21;17:40:00;1;985;12241;0;2;0;7961;6;0;324;14;3;0;4774;6;0;386;17;4;0;6393;1;0;102;15;5;0;0;0;0;0;0;0;0;6;0;10807;2;3;1;128;273;16;7;0;9392;0;0;31;2;8;0;9426;0;0;35;2;9;0;5051;0;0;75;3
19.02.21;17:35:00;1;1057;12158;0;2;0;7961;6;0;356;14;3;0;4774;3;1;420;17;4;0;6393;1;0;144;16;5;0;0;0;0;0;0;0;0;6;0;10807;23;5;3;181;510;24;7;0;9392;6;0;283;18;8;0;9426;6;0;288;18;9;0;5051;6;0;307;14
19.02.21;17:30:00;1;1151;12060;0;2;0;7961;6;0;396;15;3;1;4774;6;4;476;17;4;0;6393;1;0;203;16;5;0;0;0;0;0;0;0;0;6;0;10807;23;2;7;453;569;24;7;0;9392;6;2;390;18;8;0;9426;6;1;401;18;9;0;5051;6;1;435;14
19.02.21;17:25:00;1;1163;11954;0;2;6;7961;6;11;407;16;3;2;4774;6;6;505;18;4;0;6393;3;0;199;17;5;0;0;0;0;0;0;0;0;6;55;10807;4;28;36;421;390;25;7;2;9392;6;11;437;19;8;0;9426;6;10;439;18;9;2;5051;6;4;506;14
19.02.21;17:20:00;1;1055;11853;0;2;73;7960;4;105;361;16;3;6;4774;6;11;533;18;4;40;6393;3;41;198;17;5;0;0;0;0;0;0;0;0;6;88;10802;4;39;40;420;389;25;7;35;9392;6;67;409;19;8;29;9425;6;57;436;19;9;3;5051;6;7;537;15
19.02.21;17:15:00;1;980;11763;0;2;120;7955;4;155;369;17;3;44;4774;6;79;522;18;4;70;6390;3;73;198;17;5;0;0;0;0;0;0;0;0;6;131;10795;4;58;61;421;390;25;7;84;9389;4;127;458;19;8;88;9423;4;132;451;19;9;9;5051;6;14;550;15
19.02.21;17:10:00;1;941;11680;0;2;112;7945;4;149;363;17;3;62;4771;4;100;460;19;4;62;6384;3;64;197;18;5;0;0;0;0;0;0;0;0;6;136;10784;4;66;68;421;390;25;7;92;9382;4;134;431;20;8;87;9416;4;125;448;19;9;7;5050;6;11;553;15
19.02.21;17:05:00;1;1066;11607;0;2;155;7935;4;192;374;17;3;90;4765;4;126;463;19;4;97;6379;3;101;210;18;5;0;0;0;0;0;0;0;0;6;177;10772;4;87;86;421;390;25;7;146;9375;4;182;421;20;8;147;9409;4;181;430;19;9;76;5049;4;103;479;16
19.02.21;17:00:00;1;985;11523;0;2;220;7923;4;260;379;18;3;130;4758;4;168;489;19;4;157;6371;5;163;224;18;5;0;0;0;0;0;0;0;0;6;235;10757;4;114;117;421;422;25;7;215;9363;4;254;434;20;8;215;9397;4;251;429;20;9;110;5043;4;140;494;16
19.02.21;16:55:00;1;737;11449;0;2;275;7905;4;315;379;18;3;166;4747;4;206;479;19;4;207;6358;5;215;227;18;5;0;0;0;0;0;0;0;0;6;304;10737;4;111;153;421;540;25;7;264;9345;4;313;461;20;8;258;9379;4;303;467;20;9;133;5034;4;167;519;17
19.02.21;16:50:00;1;959;11386;0;2;333;7882;4;379;394;19;3;202;4733;4;246;503;20;4;255;6340;5;265;229;18;5;0;0;0;0;0;0;0;0;6;373;10710;4;184;215;496;548;25;7;338;9323;4;385;467;20;8;314;9358;4;353;475;20;9;154;5023;4;187;515;17
19.02.21;16:45:00;1;942;11318;0;2;296;7854;4;338;389;19;3;179;4716;4;219;493;20;4;230;6319;5;239;229;19;5;0;0;0;0;0;0;0;0;6;387;10679;4;194;206;578;546;26;7;291;9295;4;332;468;21;8;268;9331;4;314;469;20;9;137;5010;4;170;510;17
19.02.21;16:40:00;1;886;11241;0;2;267;7829;4;308;379;19;3;163;4702;4;202;482;20;4;209;6300;5;217;228;19;5;0;0;0;0;0;0;0;0;6;377;10647;4;171;187;578;544;26;7;268;9271;4;303;467;21;8;257;9309;4;295;463;21;9;134;4998;4;168;506;17
19.02.21;16:35:00;1;1776;11164;0;2;333;7807;4;376;395;20;3;202;4688;4;245;506;20;4;266;6283;5;277;229;19;5;0;0;0;0;0;0;0;0;6;461;10615;4;228;234;570;552;26;7;340;9248;4;385;464;21;8;340;9288;4;381;471;21;9;179;4987;4;215;506;18
19.02.21;16:30:00;1;2564;11041;0;2;305;7780;4;349;384;20;3;185;4671;4;225;498;21;4;234;6261;5;244;229;19;5;0;0;0;0;0;0;0;0;6;420;10577;4;197;213;563;548;26;7;327;9221;4;372;462;22;8;315;9260;4;360;460;21;9;151;4973;4;185;512;18
19.02.21;16:25:00;1;3208;10836;0;2;412;7754;4;459;391;21;3;250;4656;4;296;499;21;4;336;6242;5;350;232;20;5;0;0;0;0;0;0;0;0;6;553;10542;4;282;288;577;551;26;7;433;9194;4;477;472;22;8;425;9234;4;467;445;21;9;216;4960;4;253;511;19
19.02.21;16:20:00;1;2433;10601;0;2;512;7720;4;565;392;22;3;317;4635;4;365;489;22;4;416;6213;5;433;233;20;5;0;0;0;0;0;0;0;0;6;653;10494;4;323;336;571;556;26;7;553;9157;4;602;470;22;8;549;9198;4;593;461;22;9;287;4942;4;327;516;19
19.02.21;16:15:00;1;2598;10398;0;2;647;7677;4;704;392;23;3;400;4608;4;453;501;22;4;540;6178;5;562;235;21;5;0;0;0;0;0;0;0;0;6;841;10438;4;421;432;574;550;26;7;722;9112;4;774;464;23;8;696;9152;4;751;449;22;9;363;4918;4;412;512;20
19.02.21;16:10:00;1;2488;10176;0;2;1044;7623;4;1115;390;24;3;606;4575;4;662;455;22;4;774;6133;5;806;244;21;5;0;0;0;0;0;0;0;0;6;1276;10367;4;639;639;586;559;26;7;1370;9051;4;1448;475;23;8;1134;9076;0;1195;392;18;9;563;4887;4;614;494;20
19.02.21;16:05:00;1;2389;9972;0;2;2160;7540;4;2274;393;25;3;1156;4527;4;1229;431;23;4;1254;6071;5;1306;259;21;5;0;0;0;0;0;0;0;0;6;2032;10268;4;1055;1019;595;572;26;7;2476;8943;4;2593;480;23;8;2397;8994;4;2510;479;22;9;1133;4842;4;1208;490;21
19.02.21;16:00:00;1;2259;9771;0;2;2066;7358;4;2172;390;23;3;1060;4428;4;1129;458;22;4;1203;5965;5;1253;252;21;5;0;0;0;0;0;0;0;0;6;2112;10081;4;1085;1066;606;567;26;7;2773;8730;4;2913;486;23;8;2821;8787;4;2953;483;22;9;1535;4745;4;1631;526;20
19.02.21;15:55:00;1;2267;9580;0;2;851;7180;4;917;407;23;3;539;4336;4;594;495;22;4;717;5862;5;746;237;21;5;0;0;0;0;0;0;0;0;6;1217;9896;4;612;616;590;561;26;7;1196;8493;4;1271;474;23;8;1340;8547;4;1408;463;22;9;680;4615;4;739;520;20
19.02.21;15:50:00;1;561;9382;0;2;797;7106;4;857;396;24;3;501;4289;4;557;510;22;4;652;5799;5;679;242;21;5;0;0;0;0;0;0;0;0;6;1004;9808;4;506;506;580;562;26;7;955;8380;4;1014;467;23;8;933;8418;4;993;459;23;9;497;4549;4;549;515;20
19.02.21;15:45:00;1;785;9336;0;2;797;7040;4;859;391;25;3;499;4247;4;554;498;23;4;652;5744;5;679;239;22;5;0;0;0;0;0;0;0;0;6;1018;9724;4;538;538;580;558;26;7;966;8300;4;1021;461;24;8;942;8339;4;1006;456;23;9;501;4507;4;555;518;21
19.02.21;15:40:00;1;346;9284;0;2;1676;6972;4;1773;406;26;3;842;4205;4;913;524;23;4;1127;5689;5;1174;247;22;5;0;0;0;0;0;0;0;0;6;1856;9636;4;928;920;589;569;26;7;1961;8220;4;2071;479;24;8;1498;8261;4;1580;389;19;9;1016;4465;4;1088;523;22
19.02.21;15:35:00;1;356;9254;0;2;1790;6839;4;1887;394;27;3;874;4137;4;946;556;24;4;1201;5599;5;1250;247;22;5;0;0;0;0;0;0;0;0;6;2015;9481;4;1040;1020;590;567;26;7;2251;8066;4;2359;478;24;8;1686;8057;0;1772;372;19;9;1177;4387;4;1257;519;22
19.02.21;15:30:00;1;489;9225;0;2;2331;6685;4;2452;403;26;3;1093;4063;4;1177;565;23;4;1461;5496;5;1522;245;22;5;0;0;0;0;0;0;0;0;6;2606;9309;4;1332;1285;600;575;26;7;2968;7874;4;3121;480;24;8;2951;7928;4;3089;478;23;9;1593;4286;4;1690;531;22
19.02.21;15:25:00;1;506;9182;0;2;1728;6491;4;1828;403;26;3;868;3972;4;943;553;23;4;1228;5375;5;1279;249;22;5;0;0;0;0;0;0;0;0;6;2007;9093;4;1035;1028;590;572;26;7;2146;7627;4;2255;475;24;8;2140;7684;4;2249;471;24;9;1159;4154;4;1238;526;22
19.02.21;15:20:00;1;704;9127;0;2;1416;6345;4;1502;402;26;3;813;3899;4;882;506;23;4;1076;5272;5;1121;239;23;5;0;0;0;0;0;0;0;0;6;1696;8929;4;869;852;581;569;26;7;1638;7446;4;1720;470;24;8;1622;7502;4;1712;461;24;9;876;4056;4;945;520;22
19.02.21;15:15:00;1;458;9059;0;2;1281;6221;4;1360;393;27;3;738;3829;4;802;476;24;4;979;5179;5;1019;232;23;5;0;0;0;0;0;0;0;0;6;1496;8782;4;750;745;577;555;26;7;1572;7306;4;1653;465;24;8;1513;7363;4;1599;479;24;9;841;3980;4;905;507;22
19.02.21;15:10:00;1;514;9021;0;2;2631;6113;4;2768;394;29;3;1416;3767;4;1495;427;24;4;1738;5097;5;1811;241;23;5;0;0;0;0;0;0;0;0;6;2872;8645;4;1503;1431;584;562;26;7;3199;7174;4;3352;463;24;8;3188;7236;4;3337;464;23;9;1775;3909;4;1877;504;23
19.02.21;15:05:00;1;605;8980;0;2;3221;5896;4;3381;388;28;3;1778;3650;4;1873;421;24;4;2124;4953;5;2213;239;23;5;0;0;0;0;0;0;0;0;6;3720;8397;4;1924;1866;585;565;26;7;4152;6909;4;4357;462;23;8;4085;6971;4;4283;460;23;9;2235;3762;4;2362;515;23
19.02.21;15:00:00;1;595;8937;0;2;3146;5629;4;3306;393;27;3;1726;3502;4;1820;436;24;4;2154;4776;5;2243;243;23;5;0;0;0;0;0;0;0;0;6;3625;8089;4;1863;1820;588;560;26;7;4032;6562;4;4225;466;23;8;3998;6628;4;4193;460;22;9;2165;3574;4;2287;512;23
19.02.21;14:55:00;1;716;8893;0;2;2875;5366;4;3022;390;26;3;1532;3358;4;1624;482;24;4;1914;4597;5;1993;240;22;5;0;0;0;0;0;0;0;0;6;3191;7787;4;1634;1578;575;566;26;7;3604;6230;4;3784;466;22;8;3675;6299;4;3845;454;22;9;2064;3397;4;2183;511;22
19.02.21;14:50:00;1;715;8832;0;2;2952;5121;4;3104;387;25;3;1912;3225;4;2021;501;23;4;2560;4431;5;2667;236;22;5;0;0;0;0;0;0;0;0;6;4022;7506;4;2068;1999;591;563;25;7;4253;5917;4;4457;458;21;8;4266;5981;4;4467;461;21;9;2390;3219;4;2526;506;22
19.02.21;14:45:00;1;655;8777;0;2;3226;4890;4;3393;390;24;3;2004;3070;4;2122;537;23;4;2665;4222;5;2776;242;21;5;0;0;0;0;0;0;0;0;6;4014;7186;4;2089;2000;593;557;25;7;4426;5585;4;4635;455;21;8;4359;5627;4;4565;472;20;9;2344;3022;4;2482;525;21
19.02.21;14:40:00;1;705;8724;0;2;2380;4620;4;2506;396;23;3;1456;2901;4;1551;513;22;4;1933;3999;5;2014;239;20;5;0;0;0;0;0;0;0;0;6;3271;6833;4;1694;1664;609;569;25;7;3733;5220;4;3908;466;20;8;3773;5260;4;3955;481;19;9;1869;2823;4;1977;485;19
19.02.21;14:35:00;1;841;8669;0;2;3320;4406;4;3498;414;22;3;2200;2771;4;2326;514;21;4;2760;3833;5;2875;247;19;5;0;0;0;0;0;0;0;0;6;4317;6555;4;2298;2153;607;579;24;7;4306;4901;4;4503;463;19;8;4201;4937;4;4404;481;19;9;2388;2659;4;2517;493;19
19.02.21;14:30:00;1;613;8588;0;2;2569;4145;4;2710;420;19;3;1507;2597;4;1602;497;20;4;2016;3614;5;2099;251;18;5;0;0;0;0;0;0;0;0;6;3230;6201;4;1674;1608;603;582;24;7;3556;4561;4;3716;483;19;8;3711;4609;4;3883;497;18;9;1896;2469;4;2010;528;18
19.02.21;14:25:00;1;496;8540;0;2;1692;3930;4;1786;408;18;3;1213;2471;4;1295;522;19;4;1666;3446;5;1735;241;17;5;0;0;0;0;0;0;0;0;6;2385;5928;4;1215;1185;594;580;24;7;1934;4264;4;2031;487;18;8;1917;4296;4;2010;476;18;9;1076;2312;4;1153;527;17
19.02.21;14:20:00;1;411;8499;0;2;1203;3789;4;1276;410;18;3;767;2369;4;833;519;19;4;1075;3306;5;1120;240;17;5;0;0;0;0;0;0;0;0;6;1756;5746;4;907;879;599;572;24;7;1441;4103;4;1520;478;18;8;1474;4138;4;1554;479;18;9;796;2224;4;859;531;17
19.02.21;14:15:00;1;735;8464;0;2;1029;3689;4;1093;400;17;3;663;2305;4;721;512;19;4;928;3216;5;967;244;17;5;0;0;0;0;0;0;0;0;6;1618;5598;4;834;797;593;557;24;7;1255;3983;4;1321;470;18;8;1239;4016;4;1308;478;18;9;669;2158;4;728;529;16
19.02.21;14:10:00;1;2354;8352;0;2;1041;3604;4;1106;407;17;3;663;2251;4;722;520;19;4;928;3140;5;967;239;17;5;0;0;0;0;0;0;0;0;6;1597;5467;4;832;821;593;569;24;7;1178;3879;4;1251;482;18;8;1177;3912;4;1246;482;18;9;637;2102;4;699;526;16
19.02.21;14:05:00;1;2247;8149;0;2;1006;3518;4;1067;405;17;3;639;2196;4;695;512;19;4;892;3064;5;930;241;17;5;0;0;0;0;0;0;0;0;6;1549;5333;4;791;774;590;562;24;7;1173;3782;4;1234;463;18;8;1252;3816;4;1311;471;18;9;724;2050;4;783;517;16
19.02.21;14:00:00;1;2678;7959;0;2;884;3435;4;943;406;17;3;564;2143;4;621;516;19;4;792;2989;5;825;240;16;5;0;0;0;0;0;0;0;0;6;1379;5204;4;718;711;591;566;24;7;992;3686;4;1048;473;18;8;994;3715;4;1047;468;18;9;542;1992;4;593;521;16